Skip Page Navigation
NASA JPL Caltech
NASA Logo - Jet Propulsion Laboratory + View the NASA Portal
+ Center for Near-Earth Object Studies
JPL Home Earth Solar System Stars & Galaxies Technology
JPL Solar System Dynamics
BODIES ORBITS EPHEMERIDES TOOLS PHYSICAL DATA DISCOVERY FAQ SITE MAP
IMPORTANT: The SSD Announcement email list is now available. Major changes are coming in the near future, including possible hostname and/or URL changes. To be notified of such changes, subscribe to this email list.

Please visit this page for more details.


JPL Small-Body Database Browser
Search: [ help ]  
27245 (1999 VJ149)
Classification: Main-belt Asteroid          SPK-ID: 2027245
Ephemeris | Orbit Diagram | Orbital Elements | Mission Design | Physical Parameters | Discovery Circumstances ]

[ show orbit diagram ]
Orbital Elements at Epoch 2458600.5 (2019-Apr-27.0) TDB
Reference: JPL 11 (heliocentric ecliptic J2000)
 Element Value Uncertainty (1-sigma)   Units 
e .2096593285026734 4.4213e-08  
a 2.401355278988019 9.1344e-09 au
q 1.897888743699041 1.0512e-07 au
i 2.966969549835177 5.4287e-06 deg
node 120.7200743689583 8.8651e-05 deg
peri 164.8284239956071 8.9432e-05 deg
M 194.7837360476177 1.3041e-05 deg
tp 2459224.282735985569
(2021-Jan-09.78273599)
5.0611e-05 TDB
period 1359.199025463539
3.72
7.7553e-06
2.123e-08
d
yr
n .2648618732471695 1.5112e-09 deg/d
Q 2.904821814276996 1.105e-08 au
  Orbit Determination Parameters
   # obs. used (total)      581  
   data-arc span      9976 days (27.31 yr)  
   first obs. used      1991-09-08  
   last obs. used      2018-12-31  
   planetary ephem.      DE431  
   SB-pert. ephem.      SB431-N16  
   condition code      0  
   norm. resid. RMS      .61967  
   source      ORB  
   producer      Otto Matic  
   solution date      2019-Jul-13 01:02:30  

Additional Information
 Earth MOID = .881039 au 
 Jupiter MOID = 2.25914 au 
 T_jup = 3.494 
[ show covariance matrix ]

Ephemeris | Orbit Diagram | Orbital Elements | Mission Design | Physical Parameters | Discovery Circumstances ]

Physical Parameter Table
Parameter Symbol Value Units Sigma Reference Notes
absolute magnitude H 16.1   n/a MPO426070  

27245 (1999 VJ149)          Discovered 1999-Nov-14 by LINEAR at Socorro
Reference: 20010804/Numbers.arcLast Updated: 2004-04-19

Alternate Designations
 1999 VJ149 = 1991 RF28 = 1998 KT31 
Ephemeris | Orbit Diagram | Orbital Elements | Mission Design | Physical Parameters | Discovery Circumstances ]
ABOUT SSD CREDITS/AWARDS PRIVACY/COPYRIGHT GLOSSARY LINKS
FirstGov 2019-Dec-10 00:55 UT
(server date/time)  
NASA Home Page
Site Manager:   Ryan S. Park
Webmaster  Alan B. Chamberlin